Location: D�rnast
(49.6426°N, 11.9755°E)
Time: 03:58:11
(UTC+00:00)

ISS - Pass Details

Date: 06 December 2021
Orbit: 413 x 423 km, 51.6° (Epoch: 18 January)

Event Time Altitude Azimuth Distance (km) Brightness Sun altitude
Rises 16:53:08 0° 288° (WNW) 2,384 1.0 -15.4°
Reaches altitude 10° 16:55:22 10° 277° (W) 1,514 0.1 -15.8°
Maximum altitude 16:58:25 31° 214° (SSW) 767 -2.0 -16.2°
Drops below altitude 10° 17:01:27 10° 150° (SSE) 1,501 -1.1 -16.7°
Enters shadow 17:01:45 - 148° (SSE) 1,616 -1.0 -16.8°
